Location: Haram ta Haram Freeway
(35.0583°N, 51.4202°E)
Time: 15:58:36
(UTC+04:30)

ISS - Pass Details

Date: 14 July 2022
Orbit: 412 x 420 km, 51.6° (Epoch: 13 August)

Event Time Altitude Azimuth Distance (km) Brightness Sun altitude
Rises 05:04:52 0° 309° (NW) 2,361 -0.1 -10.5°
Reaches altitude 10° 05:06:59 10° 306° (NW) 1,497 -1.1 -10.2°
Maximum altitude 05:10:19 64° 225° (SW) 468 -3.8 -9.6°
Drops below altitude 10° 05:13:38 10° 143° (SE) 1,492 -0.9 -9.1°
Sets 05:15:37 0° 140° (SE) 2,308 0.1 -8.8°
